THORAD AGENA D DEB, 5691

Orbit data source: Space-Track

THORAD AGENA D DEB, 5691 is space debris in SSO originally from a launch on Wed, 08 Apr 1970 UTC launched from the Air Force Western Test Range (AFWTR). Debris objects in space refer to the collection of defunct objects orbiting the Earth. Examples of debris include non-operational satellites, rocket bodies, and fragments generated from explosions, collisions, or faulty payload assembly.

Loading next visibility...
Identifier
5691, 1970-025LW
Orbit
SSO
Country
Flag of USUS
Related business
Manufacturer
Unknown
Mission
Spacecraft
Bus & Motor
Unknown
Mass
Unknown
Launch date (UTC)
1970-04-08 (56 years ago)
Launch vehicle
Unknown
Launch site
Air Force Western Test Range (AFWTR)
Object type
Payload
Rocket body
Debris
Shape & HBR
Unknown shape, 0.1 m
Radar Cross Section
Small (<0.1 m²)

Expand to show TLE details & history
Last TLE update: 1 day ago

TLE from 1 day ago
0 THORAD AGENA D DEB
1 05691U 70025LW  25287.13492475  .00003337  00000-0  19830-2 0  9993
2 05691  98.9105 358.7418 0035413 220.1814 139.6736 14.07816040795035
Epoch: 2025-10-14T03:14Z
TLE epoch observation values (Epoch: 2025-10-14T03:14:17.498Z)
Latitude
-0.00001°
Longitude
-72.75881°
Altitude
889.348 km
Speed
7.397 km/s
True Right ascension
23h 54m 58s
True Declination
0° 00' 00"
Sunlit
Object was in full shadow at epoch
Visualization orbit readout
Latitude
Unknown
Longitude
Unknown
Altitude
Unknown
Speed
Unknown
Apparent Right ascension
Unknown
Apparent Declination
Unknown
Sunlit
N/A
Visualization observer readout
Local Sidereal Time
22:01:21
Azimuth
Unknown
Elevation
Unknown
Doppler factor
Unknown
Orbital elements
Apogee altitude
889.686 km
Perigee altitude
838.393 km
Semi-major axis
7,242.176 km
Eccentricity
0.00354
Inclination
98.9105°
RAAN
358.7418°
Arg. of periapsis
220.1814°
True anomaly
139.93533°
Mean anomaly
139.6736°
Eccentric anomaly
139.80455°
Mean motion
3.5216 °/min
Orbital period
102.23 mins
BSTAR
0.001983

Documentation

Showing up to 5 results
|